Time,TemperatureF,DewpointF,PressureIn,WindDirection,WindDirectionDegrees,WindSpeedMPH,WindSpeedGustMPH,Humidity,HourlyPrecipIn,Conditions,Clouds,dailyrainin,SoftwareType,DateUTC
2013-01-28 00:00:00,39.0,36.0,-100.00,SSE,158,2.0,-999.0,87,0.00,,,-99.99,,2013-01-28 08:00:00,
2013-01-28 00:21:00,39.0,36.0,-100.00,SSE,158,2.0,-999.0,87,0.00,,,-99.99,,2013-01-28 08:21:00,
2013-01-28 00:32:00,39.0,36.0,-100.00,SSE,158,2.0,-999.0,87,0.00,,,-99.99,,2013-01-28 08:32:00,
2013-01-28 00:42:00,39.0,36.0,-100.00,SSE,158,2.0,-999.0,87,0.00,,,-99.99,,2013-01-28 08:42:00,
2013-01-28 00:52:00,39.0,36.0,-100.00,SSE,158,2.0,-999.0,87,0.00,,,-99.99,,2013-01-28 08:52:00,
2013-01-28 01:00:00,38.0,36.0,-100.00,SE,128,2.0,-999.0,90,0.00,,,-99.99,,2013-01-28 09:00:00,
2013-01-28 01:22:00,38.0,36.0,-100.00,SE,128,2.0,-999.0,90,0.00,,,-99.99,,2013-01-28 09:22:00,
2013-01-28 01:32:00,38.0,36.0,-100.00,SE,128,2.0,-999.0,90,0.00,,,-99.99,,2013-01-28 09:32:00,
2013-01-28 01:42:00,38.0,36.0,-100.00,SE,128,2.0,-999.0,90,0.00,,,-99.99,,2013-01-28 09:42:00,
2013-01-28 01:52:00,38.0,36.0,-100.00,SE,128,2.0,-999.0,90,0.00,,,-99.99,,2013-01-28 09:52:00,
2013-01-28 02:00:00,38.0,35.0,-100.00,SE,146,3.0,-999.0,88,0.00,,,-99.99,,2013-01-28 10:00:00,
2013-01-28 02:21:00,38.0,35.0,-100.00,SE,146,3.0,-999.0,88,0.00,,,-99.99,,2013-01-28 10:21:00,
2013-01-28 02:32:00,38.0,35.0,-100.00,SE,146,3.0,-999.0,88,0.00,,,-99.99,,2013-01-28 10:32:00,
2013-01-28 02:42:00,38.0,35.0,-100.00,SE,146,3.0,-999.0,88,0.00,,,-99.99,,2013-01-28 10:42:00,
2013-01-28 02:52:00,38.0,35.0,-100.00,SE,146,3.0,-999.0,88,0.00,,,-99.99,,2013-01-28 10:52:00,
2013-01-28 03:00:00,38.0,35.0,-100.00,SW,236,2.0,-999.0,88,0.00,,,-99.99,,2013-01-28 11:00:00,
2013-01-28 03:22:00,38.0,35.0,-100.00,SW,236,2.0,-999.0,88,0.00,,,-99.99,,2013-01-28 11:22:00,
2013-01-28 03:32:00,38.0,35.0,-100.00,SW,236,2.0,-999.0,88,0.00,,,-99.99,,2013-01-28 11:32:00,
2013-01-28 03:42:00,38.0,35.0,-100.00,SW,236,2.0,-999.0,88,0.00,,,-99.99,,2013-01-28 11:42:00,
2013-01-28 03:52:00,38.0,35.0,-100.00,SW,236,2.0,-999.0,88,0.00,,,-99.99,,2013-01-28 11:52:00,
2013-01-28 04:00:00,38.0,35.0,-100.00,SSE,159,4.0,-999.0,88,0.00,,,-99.99,,2013-01-28 12:00:00,
2013-01-28 04:23:00,38.0,35.0,-100.00,SSE,159,4.0,-999.0,88,0.00,,,-99.99,,2013-01-28 12:23:00,
2013-01-28 04:33:00,38.0,35.0,-100.00,SSE,159,4.0,-999.0,88,0.00,,,-99.99,,2013-01-28 12:33:00,
2013-01-28 04:42:00,38.0,35.0,-100.00,SSE,159,4.0,-999.0,88,0.00,,,-99.99,,2013-01-28 12:42:00,
2013-01-28 04:52:00,38.0,35.0,-100.00,SSE,159,4.0,-999.0,88,0.00,,,-99.99,,2013-01-28 12:52:00,
2013-01-28 05:00:00,38.0,35.0,-100.00,SSW,203,4.0,-999.0,86,0.00,,,-99.99,,2013-01-28 13:00:00,
2013-01-28 05:23:00,38.0,35.0,-100.00,SSW,203,4.0,-999.0,86,0.00,,,-99.99,,2013-01-28 13:23:00,
2013-01-28 05:33:00,38.0,35.0,-100.00,SSW,203,4.0,-999.0,86,0.00,,,-99.99,,2013-01-28 13:33:00,
2013-01-28 05:42:00,38.0,35.0,-100.00,SSW,203,4.0,-999.0,86,0.00,,,-99.99,,2013-01-28 13:42:00,
2013-01-28 05:52:00,38.0,35.0,-100.00,SSW,203,4.0,-999.0,86,0.00,,,-99.99,,2013-01-28 13:52:00,
2013-01-28 06:00:00,38.0,35.0,-100.00,SSW,204,3.0,-999.0,87,0.00,,,-99.99,,2013-01-28 14:00:00,
2013-01-28 06:23:00,38.0,35.0,-100.00,SSW,204,3.0,-999.0,87,0.00,,,-99.99,,2013-01-28 14:23:00,
2013-01-28 06:33:00,38.0,35.0,-100.00,SSW,204,3.0,-999.0,87,0.00,,,-99.99,,2013-01-28 14:33:00,
2013-01-28 06:43:00,38.0,35.0,-100.00,SSW,204,3.0,-999.0,87,0.00,,,-99.99,,2013-01-28 14:43:00,
2013-01-28 06:53:00,38.0,35.0,-100.00,SSW,204,3.0,-999.0,87,0.00,,,-99.99,,2013-01-28 14:53:00,
2013-01-28 07:00:00,39.0,35.0,-100.00,SSE,152,2.0,-999.0,86,0.00,,,-99.99,,2013-01-28 15:00:00,
2013-01-28 07:24:00,39.0,35.0,-100.00,SSE,152,2.0,-999.0,86,0.00,,,-99.99,,2013-01-28 15:24:00,
2013-01-28 07:33:00,39.0,35.0,-100.00,SSE,152,2.0,-999.0,86,0.00,,,-99.99,,2013-01-28 15:33:00,
2013-01-28 07:43:00,39.0,35.0,-100.00,SSE,152,2.0,-999.0,86,0.00,,,-99.99,,2013-01-28 15:43:00,
2013-01-28 07:53:00,39.0,35.0,-100.00,SSE,152,2.0,-999.0,86,0.00,,,-99.99,,2013-01-28 15:53:00,
2013-01-28 08:00:00,38.0,35.0,-100.00,South,173,3.0,-999.0,88,0.00,,,-99.99,,2013-01-28 16:00:00,
2013-01-28 08:22:00,38.0,35.0,-100.00,South,173,3.0,-999.0,88,0.00,,,-99.99,,2013-01-28 16:22:00,
2013-01-28 08:33:00,38.0,35.0,-100.00,South,173,3.0,-999.0,88,0.00,,,-99.99,,2013-01-28 16:33:00,
2013-01-28 08:43:00,38.0,35.0,-100.00,South,173,3.0,-999.0,88,0.00,,,-99.99,,2013-01-28 16:43:00,
2013-01-28 08:53:00,38.0,35.0,-100.00,South,173,3.0,-999.0,88,0.00,,,-99.99,,2013-01-28 16:53:00,
2013-01-28 09:00:00,40.0,36.0,-100.00,SSW,198,2.0,-999.0,85,0.00,,,-99.99,,2013-01-28 17:00:00,
2013-01-28 09:33:00,40.0,36.0,-100.00,SSW,198,2.0,-999.0,85,0.00,,,-99.99,,2013-01-28 17:33:00,
2013-01-28 09:42:00,40.0,36.0,-100.00,SSW,198,2.0,-999.0,85,0.00,,,-99.99,,2013-01-28 17:42:00,
2013-01-28 09:52:00,40.0,36.0,-100.00,SSW,198,2.0,-999.0,85,0.00,,,-99.99,,2013-01-28 17:52:00,
2013-01-28 10:00:00,42.0,35.0,-100.00,SSW,208,4.0,-999.0,77,0.00,,,-99.99,,2013-01-28 18:00:00,
2013-01-28 10:23:00,42.0,35.0,-100.00,SSW,208,4.0,-999.0,77,0.00,,,-99.99,,2013-01-28 18:23:00,
2013-01-28 10:33:00,42.0,35.0,-100.00,SSW,208,4.0,-999.0,77,0.00,,,-99.99,,2013-01-28 18:33:00,
2013-01-28 10:42:00,42.0,35.0,-100.00,SSW,208,4.0,-999.0,77,0.00,,,-99.99,,2013-01-28 18:42:00,
2013-01-28 10:52:00,42.0,35.0,-100.00,SSW,208,4.0,-999.0,77,0.00,,,-99.99,,2013-01-28 18:52:00,
2013-01-28 11:00:00,44.0,37.0,-100.00,South,172,5.0,-999.0,75,0.00,,,-99.99,,2013-01-28 19:00:00,
2013-01-28 11:33:00,44.0,37.0,-100.00,South,172,5.0,-999.0,75,0.00,,,-99.99,,2013-01-28 19:33:00,
2013-01-28 11:42:00,44.0,37.0,-100.00,South,172,5.0,-999.0,75,0.00,,,-99.99,,2013-01-28 19:42:00,
2013-01-28 11:52:00,44.0,37.0,-100.00,South,172,5.0,-999.0,75,0.00,,,-99.99,,2013-01-28 19:52:00,
2013-01-28 12:00:00,48.0,38.0,-100.00,WSW,251,10.0,-999.0,68,0.00,,,-99.99,,2013-01-28 20:00:00,
2013-01-28 12:22:00,48.0,38.0,-100.00,WSW,251,10.0,-999.0,68,0.00,,,-99.99,,2013-01-28 20:22:00,
2013-01-28 12:33:00,48.0,38.0,-100.00,WSW,251,10.0,-999.0,68,0.00,,,-99.99,,2013-01-28 20:33:00,
2013-01-28 12:43:00,48.0,38.0,-100.00,WSW,251,10.0,-999.0,68,0.00,,,-99.99,,2013-01-28 20:43:00,
2013-01-28 12:52:00,48.0,38.0,-100.00,WSW,251,10.0,-999.0,68,0.00,,,-99.99,,2013-01-28 20:52:00,
2013-01-28 13:00:00,50.0,38.0,-100.00,WSW,251,5.0,-999.0,63,0.00,,,-99.99,,2013-01-28 21:00:00,
2013-01-28 13:23:00,50.0,38.0,-100.00,WSW,251,5.0,-999.0,63,0.00,,,-99.99,,2013-01-28 21:23:00,
2013-01-28 13:33:00,50.0,38.0,-100.00,WSW,251,5.0,-999.0,63,0.00,,,-99.99,,2013-01-28 21:33:00,
2013-01-28 13:43:00,50.0,38.0,-100.00,WSW,251,5.0,-999.0,63,0.00,,,-99.99,,2013-01-28 21:43:00,
2013-01-28 13:52:00,50.0,38.0,-100.00,WSW,251,5.0,-999.0,63,0.00,,,-99.99,,2013-01-28 21:52:00,
2013-01-28 14:00:00,51.0,35.0,-100.00,SSW,210,3.0,-999.0,54,0.00,,,-99.99,,2013-01-28 22:00:00,
2013-01-28 14:23:00,51.0,35.0,-100.00,SSW,210,3.0,-999.0,54,0.00,,,-99.99,,2013-01-28 22:23:00,
2013-01-28 14:33:00,51.0,35.0,-100.00,SSW,210,3.0,-999.0,54,0.00,,,-99.99,,2013-01-28 22:33:00,
2013-01-28 14:42:00,51.0,35.0,-100.00,SSW,210,3.0,-999.0,54,0.00,,,-99.99,,2013-01-28 22:42:00,
2013-01-28 14:52:00,51.0,35.0,-100.00,SSW,210,3.0,-999.0,54,0.00,,,-99.99,,2013-01-28 22:52:00,
2013-01-28 15:00:00,53.0,35.0,-100.00,West,280,4.0,-999.0,50,0.00,,,-99.99,,2013-01-28 23:00:00,
2013-01-28 15:22:00,53.0,35.0,-100.00,West,280,4.0,-999.0,50,0.00,,,-99.99,,2013-01-28 23:22:00,
2013-01-28 15:32:00,53.0,35.0,-100.00,West,280,4.0,-999.0,50,0.00,,,-99.99,,2013-01-28 23:32:00,
2013-01-28 15:42:00,53.0,35.0,-100.00,West,280,4.0,-999.0,50,0.00,,,-99.99,,2013-01-28 23:42:00,
2013-01-28 15:53:00,53.0,35.0,-100.00,West,280,4.0,-999.0,50,0.00,,,-99.99,,2013-01-28 23:53:00,
2013-01-28 16:00:00,53.0,34.0,-100.00,WSW,242,4.0,-999.0,49,0.00,,,-99.99,,2013-01-29 00:00:00,
2013-01-28 16:22:00,53.0,34.0,-100.00,WSW,242,4.0,-999.0,49,0.00,,,-99.99,,2013-01-29 00:22:00,
2013-01-28 16:33:00,53.0,34.0,-100.00,WSW,242,4.0,-999.0,49,0.00,,,-99.99,,2013-01-29 00:33:00,
2013-01-28 16:42:00,53.0,34.0,-100.00,WSW,242,4.0,-999.0,49,0.00,,,-99.99,,2013-01-29 00:42:00,
2013-01-28 16:52:00,53.0,34.0,-100.00,WSW,242,4.0,-999.0,49,0.00,,,-99.99,,2013-01-29 00:52:00,
2013-01-28 17:00:00,52.0,36.0,-100.00,WNW,294,5.0,-999.0,53,0.00,,,-99.99,,2013-01-29 01:00:00,
2013-01-28 17:23:00,52.0,36.0,-100.00,WNW,294,5.0,-999.0,53,0.00,,,-99.99,,2013-01-29 01:23:00,
2013-01-28 17:32:00,52.0,36.0,-100.00,WNW,294,5.0,-999.0,53,0.00,,,-99.99,,2013-01-29 01:32:00,
2013-01-28 17:42:00,52.0,36.0,-100.00,WNW,294,5.0,-999.0,53,0.00,,,-99.99,,2013-01-29 01:42:00,
2013-01-28 17:52:00,52.0,36.0,-100.00,WNW,294,5.0,-999.0,53,0.00,,,-99.99,,2013-01-29 01:52:00,
2013-01-28 18:00:00,48.0,36.0,-100.00,NW,320,2.0,-999.0,61,0.00,,,-99.99,,2013-01-29 02:00:00,
2013-01-28 18:22:00,48.0,36.0,-100.00,NW,320,2.0,-999.0,61,0.00,,,-99.99,,2013-01-29 02:22:00,
2013-01-28 18:33:00,48.0,36.0,-100.00,NW,320,2.0,-999.0,61,0.00,,,-99.99,,2013-01-29 02:33:00,
2013-01-28 18:42:00,48.0,36.0,-100.00,NW,320,2.0,-999.0,61,0.00,,,-99.99,,2013-01-29 02:42:00,
2013-01-28 18:53:00,48.0,36.0,-100.00,NW,320,2.0,-999.0,61,0.00,,,-99.99,,2013-01-29 02:53:00,
2013-01-28 19:00:00,45.0,34.0,-100.00,SW,228,2.0,-999.0,64,0.00,,,-99.99,,2013-01-29 03:00:00,
2013-01-28 19:22:00,45.0,34.0,-100.00,SW,228,2.0,-999.0,64,0.00,,,-99.99,,2013-01-29 03:22:00,
2013-01-28 19:32:00,45.0,34.0,-100.00,SW,228,2.0,-999.0,64,0.00,,,-99.99,,2013-01-29 03:32:00,
2013-01-28 19:42:00,45.0,34.0,-100.00,SW,228,2.0,-999.0,64,0.00,,,-99.99,,2013-01-29 03:42:00,
2013-01-28 19:53:00,45.0,34.0,-100.00,SW,228,2.0,-999.0,64,0.00,,,-99.99,,2013-01-29 03:53:00,
2013-01-28 20:00:00,40.0,35.0,-100.00,SE,125,4.0,-999.0,81,0.00,,,-99.99,,2013-01-29 04:00:00,
2013-01-28 20:22:00,40.0,35.0,-100.00,SE,125,4.0,-999.0,81,0.00,,,-99.99,,2013-01-29 04:22:00,
2013-01-28 20:32:00,40.0,35.0,-100.00,SE,125,4.0,-999.0,81,0.00,,,-99.99,,2013-01-29 04:32:00,
2013-01-28 20:42:00,40.0,35.0,-100.00,SE,125,4.0,-999.0,81,0.00,,,-99.99,,2013-01-29 04:42:00,
2013-01-28 20:52:00,40.0,35.0,-100.00,SE,125,4.0,-999.0,81,0.00,,,-99.99,,2013-01-29 04:52:00,
2013-01-28 21:00:00,39.0,35.0,-100.00,ESE,104,3.0,-999.0,84,0.00,,,-99.99,,2013-01-29 05:00:00,
2013-01-28 21:22:00,39.0,35.0,-100.00,ESE,104,3.0,-999.0,84,0.00,,,-99.99,,2013-01-29 05:22:00,
2013-01-28 21:32:00,39.0,35.0,-100.00,ESE,104,3.0,-999.0,84,0.00,,,-99.99,,2013-01-29 05:32:00,
2013-01-28 21:42:00,39.0,35.0,-100.00,ESE,104,3.0,-999.0,84,0.00,,,-99.99,,2013-01-29 05:42:00,
2013-01-28 21:52:00,39.0,35.0,-100.00,ESE,104,3.0,-999.0,84,0.00,,,-99.99,,2013-01-29 05:52:00,
2013-01-28 22:00:00,37.0,33.0,-100.00,ESE,123,2.0,-999.0,86,0.00,,,-99.99,,2013-01-29 06:00:00,
2013-01-28 22:22:00,37.0,33.0,-100.00,ESE,123,2.0,-999.0,86,0.00,,,-99.99,,2013-01-29 06:22:00,
2013-01-28 22:32:00,37.0,33.0,-100.00,ESE,123,2.0,-999.0,86,0.00,,,-99.99,,2013-01-29 06:32:00,
2013-01-28 22:42:00,37.0,33.0,-100.00,ESE,123,2.0,-999.0,86,0.00,,,-99.99,,2013-01-29 06:42:00,
2013-01-28 22:52:00,37.0,33.0,-100.00,ESE,123,2.0,-999.0,86,0.00,,,-99.99,,2013-01-29 06:52:00,
2013-01-28 23:00:00,36.0,33.0,-100.00,SE,141,3.0,-999.0,87,0.00,,,-99.99,,2013-01-29 07:00:00,
2013-01-28 23:21:00,36.0,33.0,-100.00,SE,141,3.0,-999.0,87,0.00,,,-99.99,,2013-01-29 07:21:00,
2013-01-28 23:32:00,36.0,33.0,-100.00,SE,141,3.0,-999.0,87,0.00,,,-99.99,,2013-01-29 07:32:00,
2013-01-28 23:42:00,36.0,33.0,-100.00,SE,141,3.0,-999.0,87,0.00,,,-99.99,,2013-01-29 07:42:00,
2013-01-28 23:52:00,36.0,33.0,-100.00,SE,141,3.0,-999.0,87,0.00,,,-99.99,,2013-01-29 07:52:00,